Dewpoint
-3 -1 1 5 0 1 3 2 -1 -3 -4 -5 -5 -3 -2 -4 -1 4 -5 -4 -5 -6 -11 -6 -3 1 4 4 4 4 4 3 3 3 3 3 3 3 2 3 3 3 4 4 4 5 4 3 -0
-3 -1 2 -0 1 2 2 -0 -1 -2 -5 -5 -5 -5 -5 -5 -5 -4 -4 -4 -5 -8 -12 -7 2 1 3 3 4 3 3 3 3 3 3 2 2 1 -0 -3 -1 1 3 3 4 3 3 2 1
-5 -3 -1 -1 0 1 1 -1 -4 -6 -6 -6 -6 -5 -5 -5 -5 -5 -5 -5 -6 -13 -19 -19 -11 -0 2 2 3 3 3 2 2 2 2 1 -0 -1 -2 -5 -3 -1 1 2 3 3 2 1 0
-5 -1 -3 -1 -0 -0 0 -2 -5 -6 -6 -6 -6 -6 -6 -5 -5 -5 -5 -5 -15 -15 -14 -16 -19 -15 -5 -5 1 2 1 -0 1 2 1 -3 -2 -5 -5 -7 -2 -1 1 2 2 3 2 1 -1
-4 -5 -2 0 -0 -1 -2 -4 -5 -6 -6 -6 -6 -5 -5 -6 -6 -6 -6 -13 -10 -11 -11 -9 -13 -18 -18 -16 -7 1 -2 -1 -0 1 -3 -8 -6 -8 -6 -5 -2 -1 -0 -2 -1 0 -0 -1 -5
-5 -5 -2 -1 -0 -1 -3 -5 -5 -6 -6 -6 -6 -5 -5 -5 -6 -7 -9 -8 -7 -6 -6 -6 -8 -11 -15 -21 -18 -9 -8 -5 -5 -2 -8 -10 -8 -11 -10 -9 -6 -3 -4 -2 -2 -5 -4 -5 -10
-6 -6 -4 -2 -0 -1 -3 -5 -6 -6 -6 -6 -6 -5 -5 -5 -6 -7 -5 -5 -5 -5 -5 -5 -6 -9 -14 -22 -19 -15 -14 -14 -9 -8 -10 -10 -10 -11 -12 -15 -12 -8 -12 -9 -18 -15 -11 -6 -7
-7 -3 -1 -1 -0 -1 -5 -8 -7 -6 -6 -6 -7 -4 -4 -5 -6 -5 -5 -5 -5 -5 -5 -5 -6 -7 -11 -19 -17 -14 -14 -14 -11 -10 -10 -10 -12 -13 -15 -17 -19 -20 -22 -22 -23 -21 -21 -18 -21
-7 -4 -1 -1 -1 -3 -7 -8 -8 -7 -7 -7 -7 -7 -7 -5 -5 -5 -5 -5 -5 -5 -5 -5 -5 -6 -10 -16 -15 -14 -13 -12 -12 -12 -11 -11 -12 -12 -16 -17 -18 -22 -22 -22 -21 -20 -20 -19 -20
-5 -4 -4 -5 -4 -6 -8 -8 -7 -7 -7 -7 -7 -6 -6 -6 -5 -6 -6 -6 -5 -5 -4 -5 -4 -6 -9 -15 -16 -14 -14 -14 -13 -11 -11 -11 -12 -13 -15 -16 -20 -20 -19 -18 -18 -18 -17 -16 -17
-6 -4 -5 -6 -5 -8 -9 -9 -8 -7 -7 -7 -7 -7 -6 -6 -5 -6 -6 -6 -5 -5 -4 -4 -4 -6 -9 -14 -16 -15 -15 -14 -12 -12 -12 -12 -13 -15 -14 -18 -19 -17 -16 -16 -15 -14 -14 -14 -14
-6 -7 -6 -7 -8 -10 -10 -9 -8 -9 -9 -8 -8 -9 -7 -6 -6 -5 -6 -6 -6 -5 -4 -4 -4 -6 -8 -13 -15 -16 -15 -14 -13 -14 -13 -14 -14 -13 -15 -17 -16 -15 -14 -13 -13 -12 -12 -13 -13
-8 -9 -9 -9 -9 -11 -10 -9 -9 -9 -8 -8 -8 -7 -7 -7 -7 -5 -6 -6 -5 -5 -5 -4 -5 -6 -8 -11 -12 -14 -15 -14 -14 -14 -13 -13 -11 -12 -16 -16 -14 -13 -12 -11 -11 -11 -12 -13 -14
-11 -11 -12 -12 -11 -11 -10 -10 -10 -8 -8 -8 -8 -7 -7 -8 -8 -6 -7 -6 -5 -5 -4 -4 -5 -6 -8 -10 -11 -13 -15 -15 -16 -15 -14 -11 -12 -15 -16 -15 -13 -12 -11 -11 -11 -11 -11 -9 -8
-12 -11 -13 -12 -12 -11 -11 -11 -11 -9 -8 -8 -8 -8 -9 -9 -9 -9 -9 -8 -7 -5 -5 -5 -4 -5 -9 -10 -10 -12 -14 -16 -17 -15 -12 -12 -15 -16 -14 -13 -12 -11 -11 -10 -10 -8 -6 -6 -6
-11 -11 -9 -12 -12 -12 -13 -9 -13 -9 -8 -8 -8 -9 -9 -9 -9 -9 -8 -7 -6 -6 -5 -4 -4 -5 -9 -9 -9 -12 -15 -18 -17 -14 -13 -15 -16 -15 -14 -12 -11 -10 -10 -10 -6 -6 -6 -7 -7
-9 -6 -8 -10 -13 -12 -13 -11 -13 -9 -8 -8 -9 -9 -10 -9 -8 -8 -8 -7 -7 -5 -5 -3 -4 -6 -8 -8 -9 -13 -16 -18 -16 -14 -14 -16 -15 -15 -13 -11 -10 -10 -10 -8 -6 -6 -7 -7 -6
-5 -7 -8 -9 -12 -12 -12 -12 -12 -10 -9 -9 -9 -9 -10 -9 -8 -8 -8 -6 -6 -5 -4 -3 -4 -7 -7 -8 -10 -14 -18 -18 -14 -13 -16 -15 -15 -14 -12 -11 -10 -10 -9 -8 -7 -7 -8 -6 -7
-8 -8 -8 -9 -12 -13 -12 -13 -12 -10 -10 -10 -10 -10 -11 -10 -8 -8 -7 -6 -6 -5 -4 -3 -5 -7 -7 -9 -13 -17 -19 -15 -15 -14 -15 -14 -14 -13 -12 -11 -10 -9 -9 -9 -8 -7 -7 -7 -8
-6 -5 -5 -8 -11 -12 -12 -12 -14 -12 -11 -10 -10 -11 -11 -10 -8 -8 -6 -5 -5 -4 -3 -3 -5 -7 -8 -11 -14 -18 -16 -15 -14 -14 -14 -14 -15 -14 -12 -10 -9 -9 -9 -9 -8 -7 -7 -7 -7
-5 -5 -6 -7 -11 -12 -9 -8 -11 -13 -12 -11 -11 -12 -11 -11 -9 -8 -6 -5 -4 -4 -3 -4 -5 -7 -9 -12 -14 -18 -16 -16 -17 -15 -15 -13 -15 -17 -12 -10 -9 -9 -8 -8 -8 -8 -8 -8 -7
-2 -5 -6 -8 -8 -5 -10 -3 -6 -9 -12 -12 -12 -12 -13 -11 -9 -8 -6 -5 -4 -3 -3 -5 -6 -7 -11 -13 -17 -18 -18 -17 -14 -11 -11 -14 -16 -20 -13 -11 -9 -9 -8 -8 -8 -8 -8 -8 -8
-2 -4 -4 -6 -4 -4 -5 -3 -3 -11 -10 -11 -12 -12 -13 -12 -11 -8 -7 -5 -3 -3 -4 -5 -6 -9 -12 -13 -17 -18 -18 -16 -14 -12 -13 -17 -19 -23 -16 -11 -10 -9 -8 -8 -8 -8 -8 -8 -8
-2 -1 1 1 -2 1 -2 -2 -0 -5 -8 -11 -12 -13 -13 -13 -11 -8 -6 -3 -3 -3 -5 -5 -7 -11 -12 -14 -17 -19 -18 -16 -15 -13 -16 -18 -21 -25 -21 -12 -10 -9 -8 -8 -8 -9 -9 -8 -8
-1 0 3 2 1 5 -1 -2 -1 -5 -6 -10 -11 -12 -13 -13 -11 -8 -4 -3 -3 -4 -4 -5 -9 -12 -12 -15 -19 -19 -18 -14 -13 -12 -13 -16 -21 -29 -25 -11 -10 -9 -8 -8 -9 -8 -8 -8 -8
3 3 4 -0 3 4 1 4 4 -5 -6 -7 -7 -12 -12 -11 -9 -7 -4 -3 -4 -4 -4 -7 -11 -12 -13 -18 -19 -19 -17 -13 -13 -13 -16 -19 -23 -28 -24 -11 -10 -9 -9 -9 -8 -9 -8 -8 -7
1 5 3 5 3 4 3 2 -1 -4 -4 -6 -7 -9 -9 -9 -7 -6 -4 -4 -4 -3 -5 -8 -11 -12 -14 -19 -19 -18 -16 -14 -14 -15 -17 -20 -25 -30 -23 -12 -13 -12 -10 -8 -8 -8 -8 -7 -7
3 3 6 5 6 -0 1 2 5 2 -3 -4 -5 -4 -5 -5 -6 -4 -4 -4 -3 -4 -6 -10 -12 -12 -17 -19 -19 -18 -16 -14 -15 -16 -17 -21 -24 -29 -23 -16 -16 -14 -10 -8 -7 -7 -8 -8 -7
5 5 4 4 2 -1 1 4 2 5 2 -3 -4 -4 -3 -4 -4 -4 -4 -3 -3 -4 -7 -10 -11 -13 -18 -19 -19 -18 -15 -14 -15 -15 -16 -20 -24 -27 -27 -23 -18 -15 -10 -8 -7 -7 -7 -8 -7
2 4 4 7 5 3 3 3 -0 2 1 -3 -4 -4 -2 -4 -4 -4 -3 -3 -3 -5 -7 -10 -11 -14 -19 -19 -19 -17 -15 -15 -15 -15 -17 -21 -24 -26 -26 -26 -21 -17 -12 -9 -7 -7 -7 -8 -7
Wind_Speed
1 3 1 1 4 5 2 4 2 4 2 1 4 3 5 7 2 3 12 11 3 6 6 6 6 10 12 12 12 12 12 13 15 17 17 17 17 18 19 18 18 18 17 17 16 16 16 16 13
2 1 1 2 4 3 4 2 5 4 10 16 12 7 8 4 5 14 13 9 5 6 6 7 8 10 11 11 11 12 12 13 14 15 17 18 17 18 18 18 19 18 17 17 17 17 17 17 17
3 1 3 4 3 3 3 1 4 7 18 4 5 10 4 4 11 13 11 7 5 5 7 10 10 9 11 10 11 11 12 13 12 14 16 17 17 18 20 21 20 19 18 17 17 17 17 18 19
1 2 5 4 1 2 2 4 9 11 5 3 12 7 6 5 6 7 11 6 7 8 12 15 14 12 11 10 9 9 11 13 11 13 14 17 18 20 22 22 21 19 18 17 15 16 18 21 22
5 2 3 3 3 2 1 9 18 5 6 6 3 4 5 8 7 11 8 10 7 12 15 17 16 14 12 12 10 7 11 11 11 11 14 19 19 23 23 24 21 20 18 19 18 18 19 21 22
2 3 3 2 3 1 3 12 10 4 5 8 8 7 4 12 11 11 12 12 10 12 14 15 17 16 16 13 12 8 11 11 11 10 16 20 21 24 26 26 23 21 22 20 18 21 21 21 21
5 4 2 1 2 1 5 13 7 6 6 2 11 5 9 17 14 13 12 10 9 10 12 14 17 18 18 14 12 10 12 14 12 14 19 22 24 27 28 29 26 25 25 23 24 23 22 21 21
3 4 3 2 4 4 9 6 11 7 3 15 6 6 8 22 18 15 12 10 7 8 10 12 15 19 20 16 13 11 13 15 15 17 20 23 26 29 30 30 28 27 26 26 25 24 24 24 25
2 4 2 4 7 3 13 5 5 8 15 4 4 6 14 27 23 17 13 9 6 5 7 10 14 19 20 16 13 14 16 17 19 20 22 25 28 31 31 29 27 26 25 24 23 23 23 24 24
5 3 6 3 5 5 8 7 12 7 7 3 7 10 29 26 23 17 13 8 5 3 5 8 14 18 19 16 15 16 18 20 21 22 24 27 29 30 30 28 27 26 25 24 24 23 23 23 24
2 2 2 4 4 16 11 6 6 18 3 9 24 28 27 25 22 16 10 6 2 1 2 7 12 17 19 18 18 18 20 21 21 24 26 28 29 30 29 29 28 27 26 26 25 24 24 24 24
3 3 1 4 8 10 7 14 8 3 3 14 21 25 26 24 21 17 12 8 5 3 1 6 11 16 19 19 19 20 22 21 23 26 27 28 29 30 29 29 28 28 27 26 26 25 25 24 23
3 2 6 7 9 13 15 7 6 3 11 20 22 22 21 18 17 15 11 10 8 5 1 5 11 15 18 19 21 22 22 22 25 25 26 27 29 30 30 29 28 27 26 26 26 26 25 24 21
3 9 7 5 8 7 7 3 2 8 20 23 22 20 18 17 17 18 16 14 11 7 2 4 9 14 17 19 22 24 23 24 25 24 26 27 28 30 30 29 28 27 27 26 26 24 24 23 22
5 5 4 1 2 2 10 1 4 19 23 23 21 19 18 17 16 12 10 10 9 6 1 5 9 13 16 19 22 24 24 24 24 24 25 27 29 29 30 29 28 28 28 27 24 22 21 21 24
5 4 1 2 6 4 3 7 4 25 27 23 21 20 19 18 14 13 11 10 9 6 1 5 9 13 16 19 23 24 24 24 24 24 25 27 28 30 31 29 29 29 28 24 22 22 23 24 25
4 3 4 4 10 5 3 5 1 25 25 24 22 22 19 19 21 18 15 12 9 5 2 5 8 13 16 20 23 24 24 23 24 24 26 28 28 30 29 28 28 29 27 23 22 24 22 25 27
3 4 4 5 5 4 4 8 2 24 25 27 25 24 21 21 23 18 18 15 10 7 4 4 7 12 16 19 22 23 23 22 23 24 26 27 29 29 29 29 29 29 25 24 23 24 23 24 25
1 2 3 3 4 5 8 4 8 23 20 20 26 25 24 23 22 19 20 17 13 9 5 4 7 12 16 19 22 23 23 22 22 24 25 28 28 29 29 30 30 28 26 26 25 23 26 24 26
2 4 5 2 1 4 2 9 7 13 23 33 31 28 27 24 24 22 22 19 13 8 5 4 8 12 17 20 22 22 20 21 22 22 25 28 30 30 29 30 29 27 27 27 26 24 26 24 25
5 5 5 4 2 1 4 6 3 6 14 20 27 29 29 27 27 26 25 20 15 10 5 5 8 13 17 19 20 19 18 20 22 23 24 26 29 31 30 29 28 27 27 28 26 24 22 24 24
8 9 7 5 4 3 2 5 5 3 9 9 24 32 28 28 27 28 27 22 16 11 6 5 9 14 17 18 20 20 21 23 23 22 23 26 28 32 31 30 28 27 26 27 26 22 22 21 23
8 5 7 4 4 3 1 2 6 1 4 11 18 31 33 28 30 32 28 22 16 10 5 5 9 13 15 18 19 19 21 22 21 20 23 26 29 32 33 32 29 27 26 27 25 24 22 21 21
3 5 7 4 2 2 4 5 5 3 5 2 12 25 31 27 30 31 28 23 16 10 4 5 9 12 14 17 18 20 21 21 21 22 26 28 30 32 33 32 30 27 28 28 26 24 23 21 19
8 5 3 4 3 4 1 1 8 6 4 5 12 20 28 29 30 34 32 24 16 9 3 4 8 11 14 16 18 20 21 20 22 22 26 29 30 33 33 32 32 31 29 29 28 25 24 21 19
3 1 3 5 0 4 2 4 4 3 10 8 12 25 29 29 30 35 30 22 15 8 2 4 7 10 13 16 18 18 19 19 21 23 25 28 29 31 30 30 30 30 30 30 29 26 24 20 20
2 4 1 3 2 2 3 5 4 6 9 13 17 27 31 31 34 34 27 19 13 7 1 4 7 9 13 15 16 17 18 19 22 22 25 28 30 31 28 29 30 30 30 34 31 26 24 23 23
4 5 2 3 1 3 5 2 4 8 7 4 6 17 27 31 34 32 25 19 13 6 1 3 6 9 13 14 15 17 18 19 20 22 27 29 30 30 29 29 30 31 34 34 31 26 27 27 26
1 2 5 5 3 3 1 5 4 4 5 5 5 16 27 33 35 31 25 18 11 6 2 3 5 10 12 13 15 16 18 19 20 23 27 29 30 30 29 30 30 32 35 35 32 29 29 30 30
1 4 5 3 3 2 2 6 3 3 4 11 13 19 25 33 34 29 23 18 11 6 4 3 6 9 11 13 14 16 17 19 21 25 27 29 30 30 30 30 30 33 36 36 36 31 32 34 33
Wind_Direction
5 169 10 64 57 67 197 239 119 152 181 35 135 95 113 48 58 152 129 146 100 23 27 40 40 52 41 42 40 37 35 31 30 30 29 29 25 16 16 14 10 10 7 4 1 356 354 348 318
314 198 27 64 88 81 262 215 209 167 124 106 85 67 49 69 69 133 132 134 78 37 41 53 54 50 40 40 39 33 32 28 27 27 26 24 22 13 12 5 4 4 4 357 352 349 348 347 341
308 268 346 85 86 168 231 217 103 101 138 90 97 73 72 86 114 130 132 109 69 65 54 54 52 51 33 35 33 26 26 22 21 21 22 20 16 13 8 6 4 0 358 355 349 344 341 336 334
261 146 62 76 266 258 212 161 134 120 161 116 120 66 87 116 127 136 130 101 90 84 60 50 39 35 29 21 30 23 21 13 14 16 14 13 9 7 4 359 359 355 358 356 351 342 335 329 327
175 128 62 75 267 270 313 144 146 119 119 118 129 127 101 139 141 130 121 113 101 81 62 48 38 31 16 3 13 22 12 13 12 9 359 2 3 2 1 356 357 356 349 340 335 329 325 323 321
94 94 53 267 239 59 79 150 144 104 123 137 103 101 129 142 139 128 121 120 108 79 62 47 35 24 12 2 4 7 3 2 5 358 353 355 359 353 351 351 352 346 344 341 329 327 323 319 316
118 87 234 182 207 174 160 153 144 121 114 106 127 88 143 150 136 131 131 127 105 75 54 41 29 20 11 7 4 1 349 358 2 348 348 348 349 345 345 344 343 340 337 335 333 330 325 324 318
127 90 121 220 188 228 151 110 120 129 113 135 139 153 177 158 149 146 148 140 110 71 45 32 22 13 9 7 2 354 355 359 350 346 343 343 342 340 340 339 337 336 335 332 329 326 323 319 317
129 68 203 215 159 184 153 122 102 113 137 143 176 169 164 156 161 164 163 151 121 71 39 25 17 10 6 3 357 353 355 353 347 345 343 339 339 338 337 336 336 334 332 330 328 322 318 314 312
78 113 221 174 175 169 154 128 133 125 139 84 141 152 151 159 167 175 170 156 139 85 32 18 11 6 3 358 353 352 351 347 347 344 339 338 337 335 334 337 337 336 336 333 328 324 319 314 312
87 155 170 343 213 157 136 107 130 135 212 186 152 147 158 165 173 181 177 168 146 143 19 13 6 3 0 357 353 351 349 346 346 340 338 337 334 333 338 340 339 340 337 333 331 329 325 322 319
82 51 27 119 131 120 122 133 123 166 214 177 162 155 161 171 179 184 189 190 195 200 297 5 4 2 359 357 355 352 348 348 342 340 338 336 335 338 340 341 341 339 339 336 333 331 328 324 320
85 115 69 116 133 119 137 130 149 177 147 154 156 162 166 175 184 191 199 202 206 209 241 4 2 359 358 355 359 353 350 346 344 341 339 337 338 340 341 342 341 340 339 337 334 331 327 326 323
71 91 97 100 123 123 118 140 159 158 152 154 162 167 175 183 187 193 200 205 202 201 219 356 358 357 355 353 357 354 350 347 344 342 341 340 341 341 343 342 341 341 340 337 333 334 335 338 335
92 73 53 90 143 121 123 279 228 167 165 164 170 172 174 176 179 191 199 200 199 191 237 347 354 354 349 353 355 353 350 348 345 345 343 344 344 344 344 343 342 343 342 339 340 344 343 341 337
68 59 119 243 155 162 82 267 197 172 173 176 177 178 179 186 196 199 204 197 192 202 265 336 348 350 351 354 353 353 351 349 347 346 347 348 347 347 346 345 345 343 342 345 350 345 344 340 335
3 232 202 306 194 154 167 255 162 177 184 184 187 189 189 194 195 199 203 201 199 198 273 323 346 348 352 353 351 352 353 348 349 350 353 352 349 348 347 347 346 344 347 351 347 346 344 340 341
246 246 242 231 219 154 176 246 165 186 193 194 195 196 197 200 202 204 199 194 199 207 242 304 342 347 352 351 351 352 352 351 354 357 356 353 351 350 350 349 348 348 350 351 345 345 345 340 337
138 216 260 228 227 154 219 261 200 195 203 207 206 203 200 201 200 203 197 196 202 207 237 297 341 344 349 349 352 355 355 356 357 359 358 358 357 355 353 351 351 353 354 349 347 348 341 340 340
268 329 288 258 71 181 162 257 205 191 212 210 208 210 205 199 198 200 196 200 204 214 231 302 333 344 349 352 357 358 356 359 1 360 2 2 4 1 357 353 356 357 351 349 348 351 337 338 342
236 209 229 251 84 271 4 297 213 232 220 215 219 219 213 206 199 198 197 200 201 209 236 305 331 348 348 355 359 359 359 0 1 2 1 1 4 3 0 360 358 354 350 348 348 346 346 333 334
264 204 212 157 128 232 139 276 295 216 226 207 213 219 219 207 204 202 198 198 199 208 235 301 337 345 349 359 358 3 4 6 5 359 356 1 4 5 5 3 358 355 352 349 350 350 348 333 326
248 151 143 130 109 85 296 27 269 39 245 227 211 216 217 210 206 203 197 197 195 208 235 308 337 344 356 2 2 6 8 8 3 357 357 359 3 6 6 4 359 357 355 352 352 350 339 333 326
335 57 51 55 71 24 247 143 283 234 231 295 202 207 212 204 205 199 192 190 193 200 228 313 340 350 3 4 6 8 8 6 3 2 0 360 1 5 5 4 4 0 357 355 354 353 347 332 329
24 40 7 358 10 226 43 87 246 267 250 228 202 186 201 197 197 190 186 183 191 196 221 326 350 357 7 7 8 9 6 7 7 5 2 359 2 4 4 3 5 3 0 1 4 353 342 346 342
114 3 139 202 206 288 110 238 260 4 356 319 235 185 183 186 189 183 182 183 187 184 214 349 0 5 10 11 11 8 8 10 10 8 6 5 5 2 3 3 2 0 2 3 4 357 359 356 354
2 49 357 63 54 23 248 301 337 350 30 46 113 152 167 177 180 177 176 180 178 173 140 14 15 11 16 15 12 13 12 13 13 11 10 10 10 6 5 5 6 5 6 11 3 5 7 7 5
138 127 45 41 313 288 299 292 260 342 350 53 106 137 158 169 171 171 172 173 167 161 110 32 26 21 20 17 15 17 17 17 14 12 13 12 10 8 9 8 7 11 16 12 8 9 14 13 14
30 63 53 103 145 163 314 277 209 265 308 180 145 158 161 168 168 168 168 166 162 157 140 52 40 28 23 20 19 19 20 20 15 15 13 13 11 11 11 10 11 16 19 16 13 14 17 21 20
90 176 146 124 224 108 106 275 176 269 278 171 160 165 163 167 166 168 167 166 163 167 129 70 52 29 25 23 21 23 23 20 20 18 15 13 13 12 13 13 15 21 22 20 17 17 22 25 24
Height
1494 1494 1494 1493 1505 1512 1524 1521 1515 1519 1521 1521 1522 1524 1527 1531 1532 1540 1542 1544 1545 1544 1544 1543 1542 1542 1541 1540 1539 1537 1536 1534 1532 1530 1528 1526 1524 1521 1518 1517 1514 1512 1511 1510 1509 1506 1503 1500 1497
1495 1495 1495 1494 1514 1525 1522 1514 1516 1517 1521 1523 1524 1527 1529 1535 1536 1538 1542 1544 1544 1544 1544 1543 1543 1542 1542 1540 1539 1537 1536 1534 1532 1530 1527 1524 1522 1520 1517 1514 1512 1510 1509 1508 1507 1504 1501 1497 1494
1495 1495 1497 1504 1525 1525 1522 1515 1517 1519 1521 1523 1526 1529 1533 1537 1538 1539 1542 1543 1544 1545 1544 1543 1542 1542 1541 1540 1539 1537 1535 1533 1531 1529 1526 1524 1521 1518 1516 1513 1511 1509 1507 1506 1505 1502 1499 1495 1492
1494 1497 1500 1511 1515 1513 1513 1513 1515 1520 1523 1524 1526 1532 1536 1537 1539 1541 1543 1545 1545 1545 1544 1543 1543 1542 1541 1539 1539 1537 1535 1533 1530 1528 1526 1523 1519 1516 1513 1510 1509 1507 1505 1504 1502 1500 1498 1494 1490
1494 1495 1509 1516 1514 1512 1511 1513 1515 1519 1523 1525 1527 1535 1536 1539 1540 1542 1544 1545 1547 1546 1545 1544 1543 1542 1541 1539 1537 1536 1534 1532 1529 1527 1524 1521 1517 1514 1511 1508 1506 1504 1502 1498 1496 1494 1493 1490 1487
1493 1496 1513 1517 1514 1511 1512 1513 1516 1519 1522 1525 1526 1532 1538 1540 1542 1543 1545 1546 1547 1546 1545 1544 1542 1541 1540 1538 1536 1534 1532 1530 1528 1526 1523 1520 1516 1513 1510 1506 1503 1500 1496 1494 1491 1487 1485 1484 1481
1493 1502 1512 1511 1513 1512 1511 1513 1515 1519 1523 1525 1526 1533 1539 1541 1543 1544 1545 1547 1547 1546 1545 1544 1542 1541 1539 1537 1535 1533 1531 1529 1527 1524 1522 1518 1515 1511 1508 1504 1500 1496 1493 1489 1487 1483 1480 1477 1475
1492 1498 1511 1513 1516 1511 1509 1512 1515 1517 1522 1524 1526 1531 1537 1537 1541 1543 1545 1546 1546 1546 1545 1544 1542 1541 1539 1536 1535 1532 1531 1528 1526 1523 1520 1516 1513 1509 1505 1501 1497 1493 1489 1486 1482 1479 1476 1472 1470
1491 1506 1515 1506 1512 1506 1509 1510 1515 1519 1521 1523 1524 1525 1528 1533 1538 1542 1543 1544 1544 1544 1544 1543 1542 1540 1538 1536 1534 1532 1530 1527 1525 1522 1518 1515 1511 1506 1502 1498 1494 1490 1486 1483 1479 1475 1473 1469 1465
1493 1507 1504 1501 1502 1504 1507 1508 1513 1518 1523 1523 1523 1525 1529 1533 1537 1540 1542 1542 1543 1544 1544 1543 1541 1540 1538 1535 1532 1530 1528 1525 1522 1519 1517 1512 1508 1505 1500 1496 1491 1486 1482 1478 1474 1470 1468 1464 1460
1496 1503 1500 1500 1500 1502 1506 1510 1513 1517 1523 1520 1520 1525 1529 1533 1536 1541 1542 1543 1544 1544 1544 1543 1541 1540 1537 1534 1532 1529 1526 1524 1520 1517 1513 1510 1506 1502 1498 1492 1487 1482 1478 1474 1469 1465 1461 1458 1453
1499 1500 1501 1502 1502 1504 1507 1510 1514 1516 1516 1517 1521 1523 1528 1532 1535 1538 1541 1542 1543 1543 1543 1542 1541 1539 1536 1533 1531 1527 1524 1521 1518 1514 1510 1507 1503 1499 1494 1488 1483 1478 1473 1469 1464 1459 1456 1452 1448
1498 1502 1503 1503 1504 1506 1508 1511 1514 1516 1515 1518 1522 1526 1529 1532 1536 1538 1541 1541 1541 1542 1542 1542 1540 1538 1535 1533 1530 1526 1523 1519 1515 1512 1508 1504 1500 1496 1491 1485 1479 1474 1469 1464 1460 1455 1450 1446 1443
1501 1502 1505 1506 1507 1509 1511 1515 1515 1518 1518 1520 1524 1527 1530 1532 1535 1537 1538 1539 1539 1540 1541 1541 1540 1537 1534 1531 1528 1524 1521 1517 1514 1510 1506 1502 1497 1492 1487 1481 1476 1471 1465 1460 1455 1450 1445 1442 1438
1502 1507 1507 1508 1509 1510 1512 1517 1516 1516 1519 1522 1525 1528 1530 1532 1534 1535 1535 1537 1538 1539 1540 1540 1539 1536 1534 1530 1527 1523 1520 1516 1512 1508 1504 1500 1494 1489 1484 1477 1472 1467 1461 1456 1451 1447 1443 1439 1436
1506 1509 1515 1508 1509 1511 1513 1518 1512 1515 1517 1521 1525 1528 1530 1532 1533 1534 1535 1537 1538 1539 1539 1539 1538 1536 1533 1530 1525 1522 1518 1514 1510 1506 1502 1497 1492 1486 1480 1475 1469 1463 1458 1452 1448 1443 1439 1436 1432
1512 1517 1517 1511 1508 1510 1513 1513 1512 1514 1517 1520 1523 1526 1529 1531 1533 1534 1536 1538 1540 1540 1540 1539 1538 1536 1533 1529 1525 1521 1517 1514 1509 1505 1500 1495 1490 1485 1479 1473 1467 1461 1454 1449 1445 1440 1436 1430 1427
1515 1518 1516 1514 1508 1510 1515 1513 1513 1514 1516 1517 1521 1524 1527 1529 1531 1533 1536 1538 1539 1539 1539 1539 1537 1536 1533 1529 1525 1520 1517 1513 1508 1504 1499 1495 1489 1483 1477 1471 1464 1457 1451 1446 1441 1436 1432 1428 1423
1507 1512 1511 1510 1505 1509 1511 1510 1511 1512 1516 1517 1518 1521 1524 1527 1530 1533 1535 1537 1538 1538 1538 1538 1537 1535 1532 1529 1524 1519 1516 1512 1507 1503 1499 1494 1488 1481 1475 1468 1461 1454 1448 1443 1438 1434 1429 1425 1421
1505 1509 1510 1506 1505 1510 1509 1508 1507 1508 1506 1507 1512 1517 1521 1524 1527 1531 1534 1536 1537 1538 1538 1538 1536 1534 1531 1527 1522 1518 1515 1511 1506 1503 1498 1493 1487 1480 1473 1466 1459 1453 1447 1442 1437 1432 1428 1424 1421
1504 1508 1507 1505 1506 1506 1508 1508 1504 1502 1503 1506 1509 1513 1517 1520 1523 1528 1531 1534 1536 1537 1538 1538 1536 1533 1530 1527 1523 1519 1515 1510 1506 1502 1498 1494 1487 1480 1472 1465 1458 1452 1446 1440 1436 1431 1427 1422 1419
1505 1494 1496 1504 1509 1516 1508 1524 1502 1499 1500 1501 1502 1507 1512 1517 1522 1525 1529 1532 1535 1536 1538 1537 1536 1533 1530 1526 1522 1518 1514 1509 1505 1502 1499 1493 1486 1479 1471 1464 1457 1451 1445 1440 1434 1430 1426 1422 1416
1497 1489 1494 1501 1509 1511 1513 1526 1504 1498 1497 1495 1496 1500 1507 1514 1517 1520 1526 1531 1534 1536 1537 1537 1536 1533 1530 1526 1522 1518 1514 1510 1507 1503 1498 1492 1486 1478 1470 1463 1456 1450 1444 1438 1432 1428 1424 1419 1413
1498 1496 1499 1508 1513 1536 1512 1521 1511 1498 1489 1486 1488 1494 1502 1509 1514 1520 1526 1529 1533 1535 1536 1536 1535 1533 1530 1526 1522 1518 1514 1511 1507 1502 1496 1490 1484 1477 1470 1463 1456 1449 1443 1437 1430 1425 1420 1415 1409
1502 1507 1532 1531 1541 1523 1509 1516 1501 1486 1485 1483 1484 1491 1498 1505 1511 1517 1522 1528 1532 1535 1536 1536 1534 1533 1530 1526 1523 1519 1515 1511 1507 1502 1497 1490 1483 1476 1469 1463 1456 1449 1442 1436 1429 1423 1416 1410 1405
1507 1510 1528 1545 1534 1524 1510 1516 1494 1485 1484 1480 1482 1487 1495 1503 1509 1515 1522 1528 1532 1534 1536 1536 1535 1533 1530 1526 1523 1520 1516 1512 1508 1503 1498 1491 1484 1477 1470 1464 1457 1450 1443 1435 1427 1420 1414 1408 1402
1508 1518 1514 1520 1526 1539 1518 1498 1486 1487 1488 1487 1486 1489 1494 1501 1508 1515 1523 1529 1532 1535 1536 1536 1535 1533 1530 1527 1524 1520 1517 1513 1509 1504 1499 1492 1485 1478 1471 1465 1458 1451 1443 1434 1426 1419 1413 1406 1399
1502 1511 1520 1528 1531 1546 1521 1506 1505 1495 1494 1496 1496 1495 1498 1503 1510 1517 1524 1529 1532 1535 1536 1536 1535 1533 1531 1528 1525 1521 1518 1514 1510 1505 1499 1493 1486 1479 1473 1466 1460 1451 1442 1435 1426 1419 1412 1405 1397
1515 1519 1526 1532 1549 1551 1549 1511 1498 1496 1497 1498 1500 1500 1500 1504 1511 1519 1525 1530 1533 1535 1536 1536 1536 1534 1532 1529 1526 1523 1519 1516 1511 1506 1500 1494 1488 1481 1474 1468 1461 1453 1444 1436 1427 1419 1412 1404 1396
1505 1511 1518 1524 1536 1545 1547 1527 1495 1494 1493 1495 1499 1503 1505 1509 1514 1520 1526 1530 1533 1535 1536 1537 1536 1535 1533 1530 1527 1524 1521 1518 1513 1508 1502 1497 1490 1484 1477 1470 1463 1455 1447 1439 1429 1421 1413 1404 1396